Probability
0 0 0 0 0 0 0 0 0 0 0 0 0 0 0 0 0 0 0 0 0 0 0 0 0 0 0 0 0 0 0 0 0 0 0 0 0 0 0 0 0 0 0 0 0 0 0 0 0
0 0 0 0 0 0 0 0 0 0 0 0 0 0 0 0 0 0 0 0 0 0 0 0 0 0 0 0 0 0 0 0 0 0 0 0 0 0 0 0 0 0 0 0 0 0 0 0 0
0 0 0 0 0 0 0 0 0 0 0 0 0 0 0 0 0 0 0 0 0 0 0 0 0 0 0 0 0 0 0 0 0 0 0 0 0 0 0 0 0 0 0 0 0 0 0 0 0
0 0 0 0 0 0 0 0 0 0 0 0 0 0 0 0 0 0 0 0 0 0 0 0 0 0 0 0 0 0 0 0 0 0 0 0 0 0 0 0 0 0 0 0 0 0 0 0 0
0 0 0 0 0 0 0 0 0 0 0 0 0 0 0 0 0 0 0 0 0 0 0 0 0 0 0 0 0 0 0 0 0 0 0 0 0 0 0 0 0 0 0 0 0 0 0 0 0
0 0 0 0 0 0 0 0 0 0 0 0 0 0 0 0 0 0 0 0 0 0 0 0 0 0 0 0 0 0 0 0 0 0 0 0 0 0 0 0 0 0 0 0 0 0 0 0 0
0 0 0 0 0 0 0 0 0 0 0 0 0 0 0 0 0 0 0 0 0 0 0 0 0 0 0 0 0 0 0 0 0 0 0 0 0 0 0 0 0 0 0 0 0 0 0 0 0
0 0 0 0 0 0 0 0 0 0 0 0 0 0 0 0 0 0 0 0 0 1 1 1 0 0 0 0 0 0 0 0 0 0 0 0 0 0 0 0 0 0 0 0 0 0 0 0 0
0 0 0 0 0 0 0 0 0 0 0 0 0 0 1 1 1 0 0 0 0 1 2 1 0 0 0 0 0 0 0 0 0 0 0 0 0 0 0 0 0 0 0 0 0 0 0 0 0
0 0 0 0 0 0 0 0 0 0 0 0 0 0 1 1 1 0 0 0 0 2 2 1 0 0 0 0 0 0 0 0 0 0 0 0 0 0 0 0 0 0 0 0 0 0 0 0 0
0 0 0 0 0 0 0 0 0 0 0 0 0 0 0 0 0 0 0 0 0 1 1 1 0 0 0 0 0 0 0 0 0 0 0 0 0 0 0 0 0 0 0 0 0 0 0 0 0
0 0 0 0 0 0 0 0 0 0 0 0 0 0 0 0 0 0 0 0 0 0 0 0 0 0 0 0 0 0 0 0 0 0 0 0 0 0 0 0 0 0 0 0 0 0 0 0 0
0 0 0 0 0 0 0 0 0 0 0 0 0 0 0 0 0 0 0 0 0 0 0 0 0 0 0 0 0 0 0 0 0 0 0 0 0 0 0 0 0 0 0 0 0 0 0 0 0
0 0 0 0 0 0 0 0 0 0 0 0 0 0 0 0 0 0 0 0 0 0 0 0 0 0 0 0 0 0 0 0 0 0 0 0 0 0 0 0 0 0 0 0 0 0 0 0 0
0 0 0 0 0 0 0 0 0 0 0 0 0 0 0 0 0 0 0 0 0 1 0 0 0 0 0 0 0 0 0 0 0 0 0 0 0 0 0 0 0 0 0 0 0 0 0 0 0
0 0 0 0 0 0 0 0 0 0 0 0 0 0 0 0 0 0 0 0 0 0 0 0 0 0 0 0 0 0 0 0 0 0 0 0 0 0 0 0 0 0 0 0 0 0 0 0 0
0 0 0 0 0 0 0 0 0 0 0 0 0 0 0 0 0 0 0 0 0 0 0 0 0 0 0 0 0 0 0 0 0 0 0 0 0 0 0 0 0 0 0 0 0 0 0 0 0
0 0 0 0 0 0 0 0 0 0 0 0 0 0 0 0 0 0 0 0 0 0 1 1 1 0 0 0 0 0 0 0 0 0 0 0 0 0 0 0 0 0 0 0 0 0 0 0 0
0 0 0 0 0 0 0 0 0 0 0 0 0 0 0 0 0 0 1 2 2 1 1 2 1 0 0 0 0 0 0 0 0 0 0 0 0 0 0 0 0 0 0 0 0 0 0 0 0
0 0 0 0 0 0 0 0 0 0 0 0 0 0 0 0 0 1 2 4 5 4 2 2 2 1 0 0 0 0 0 0 0 0 0 0 0 0 0 0 0 0 0 0 0 0 0 0 0
0 0 0 0 0 0 0 0 0 0 0 0 0 0 0 0 0 1 3 5 7 6 4 1 2 1 0 0 0 0 0 0 0 0 0 0 0 0 0 0 0 0 0 0 0 0 0 0 0
0 0 1 1 1 0 0 0 0 0 0 0 0 0 0 0 0 0 2 4 7 7 5 2 2 1 0 0 0 0 0 0 0 0 0 0 0 0 0 0 0 0 0 0 0 0 0 0 0
0 0 1 2 1 0 0 0 0 0 0 0 0 0 0 0 0 1 2 4 6 7 6 5 4 3 1 1 0 0 0 0 0 0 0 0 0 0 0 0 0 0 0 0 0 0 0 0 0
0 0 1 2 2 1 0 0 0 0 0 0 0 0 0 0 0 1 2 4 6 7 6 7 7 6 4 3 1 0 0 0 0 0 0 0 0 0 0 0 0 0 0 0 0 0 0 0 0
0 0 0 1 1 1 0 0 0 0 0 0 0 0 0 0 0 1 2 3 4 4 5 7 8 7 6 5 3 1 0 0 0 0 0 0 0 0 0 0 0 0 0 0 0 0 0 0 0
0 0 0 0 0 0 0 0 0 0 0 0 0 0 0 0 0 1 2 2 2 2 3 5 6 6 6 6 5 2 1 1 0 0 0 0 0 0 0 0 0 0 0 0 0 0 0 0 0
0 0 0 0 0 0 0 0 0 0 0 0 0 0 0 0 0 0 1 1 0 1 2 2 3 4 6 6 6 4 3 2 1 0 0 0 0 0 0 0 0 0 0 0 0 0 0 0 0
0 0 0 0 0 0 0 0 0 0 0 0 0 0 0 0 0 0 0 0 0 0 1 1 1 2 5 6 5 4 3 3 2 1 1 0 0 0 0 0 0 0 0 0 0 0 0 0 0
0 0 0 0 0 0 0 0 0 0 0 0 0 0 0 0 0 0 0 0 1 1 1 1 1 1 3 4 4 3 3 3 3 3 2 1 0 0 0 0 0 0 0 0 0 0 0 0 0
0 0 0 0 0 0 0 0 0 0 0 0 0 0 0 0 0 0 0 0 1 1 1 2 1 0 2 4 4 3 3 3 3 3 3 2 1 0 0 0 0 0 0 0 0 0 0 0 0
Wind_Speed
3 1 2 3 4 2 5 5 3 4 5 5 5 5 5 6 6 6 4 3 3 4 4 5 5 5 6 6 7 8 8 9 9 9 9 9 10 10 9 9 9 10 10 9 9 9 9 9 9
1 1 3 4 3 3 5 4 6 6 6 5 5 5 5 7 6 6 4 4 4 5 5 5 7 6 6 7 8 9 9 9 9 9 9 9 9 9 9 9 9 9 9 9 9 9 10 9 10
1 2 3 2 0 2 6 5 6 6 5 3 4 5 5 5 4 4 4 5 5 6 5 7 7 7 7 8 9 9 9 9 8 9 9 9 9 9 9 9 9 9 10 9 9 9 9 9 10
2 3 2 1 5 5 5 4 5 5 4 4 4 6 6 5 3 4 6 6 6 6 6 8 7 7 7 8 9 9 9 9 8 8 9 9 9 9 9 8 9 9 9 9 9 9 9 10 10
2 2 2 4 5 4 4 3 3 3 4 4 4 5 6 5 5 6 7 6 6 6 6 7 7 7 7 8 8 9 9 9 9 9 9 9 9 9 8 8 9 9 9 9 9 9 10 10 10
2 2 3 5 6 5 4 3 3 4 5 4 4 5 6 4 5 6 6 6 6 6 6 7 8 7 7 7 7 8 8 8 8 9 9 9 9 9 9 9 9 8 9 9 9 9 10 10 10
1 1 2 5 5 5 3 1 1 3 4 4 2 4 6 5 5 5 6 6 6 6 6 5 6 7 7 7 7 7 7 8 8 9 9 9 9 8 8 9 9 9 9 9 9 10 10 10 10
2 1 4 4 4 4 3 2 2 2 4 3 1 2 5 6 6 6 6 6 6 6 5 5 5 5 6 7 7 7 7 8 8 8 8 8 7 8 7 9 10 9 9 9 10 10 10 10 10
3 2 3 3 3 4 4 3 3 2 4 3 3 4 5 8 8 7 6 6 5 5 4 5 5 4 5 5 7 6 7 7 6 7 7 4 5 7 6 11 10 10 10 10 10 10 9 8 9
1 1 3 3 2 3 3 3 3 3 4 4 5 5 7 8 8 7 6 6 6 5 4 4 4 4 4 4 4 3 4 4 4 4 5 4 5 5 6 9 9 9 9 9 9 7 5 2 5
1 3 4 3 2 2 3 3 1 2 2 2 3 6 8 8 7 6 6 5 5 5 4 3 3 4 4 3 3 2 2 3 3 4 4 3 4 3 3 3 5 6 5 5 6 4 4 5 5
3 4 3 3 2 1 2 2 2 0 2 2 3 6 8 8 7 6 6 5 5 4 4 4 3 3 4 3 3 2 2 2 2 3 4 3 2 2 3 2 3 3 3 4 3 3 5 6 6
3 4 3 3 3 2 3 2 1 1 2 2 5 6 7 6 6 5 5 5 5 5 4 4 3 3 3 3 2 2 2 2 3 2 3 4 2 3 3 3 2 3 3 3 3 4 5 5 6
4 4 3 2 3 2 2 2 2 2 3 4 5 5 5 5 5 6 6 6 5 5 5 5 4 3 3 3 3 2 2 2 1 2 2 3 2 2 2 3 3 3 3 3 4 5 4 4 4
3 3 3 3 2 2 2 2 2 3 3 4 4 5 5 4 4 5 5 5 5 5 5 5 4 4 4 3 3 2 2 3 2 2 2 2 2 2 2 2 3 3 3 4 4 5 4 4 4
3 3 3 3 2 2 4 1 2 2 3 3 3 4 4 4 4 4 4 5 5 5 5 5 4 4 4 3 3 2 1 2 2 2 1 2 2 2 2 2 2 3 3 3 3 3 4 4 4
3 3 2 3 2 2 3 2 2 2 4 4 4 4 4 5 5 4 5 5 5 6 6 6 5 5 4 3 2 2 2 2 1 2 1 1 2 2 2 2 2 3 3 3 3 3 3 4 4
2 2 2 1 2 2 3 3 2 3 4 4 4 4 4 5 4 4 4 4 5 6 6 6 5 5 4 3 3 2 2 2 1 2 2 2 1 2 3 2 3 3 3 3 3 4 3 3 2
1 2 2 0 1 3 4 4 4 4 5 5 5 5 5 5 4 3 4 4 5 6 6 6 6 5 4 3 3 3 2 2 2 2 2 3 2 2 3 2 3 3 3 3 4 4 4 3 2
3 3 2 2 1 4 5 6 4 5 6 5 5 5 5 4 4 4 4 4 5 6 7 7 6 6 5 3 2 2 1 2 2 2 2 2 3 3 2 3 3 3 3 4 4 3 2 2 2
3 4 3 2 2 4 5 5 6 6 6 6 6 6 5 5 5 4 5 5 6 6 7 6 6 6 6 5 3 3 2 2 3 3 2 2 3 3 3 3 3 3 3 3 4 4 4 2 2
2 1 3 4 5 2 4 4 3 4 7 7 7 7 6 6 5 5 5 6 6 6 6 7 7 6 6 6 5 5 4 3 3 2 3 3 3 3 3 3 3 3 3 4 4 4 3 3 2
1 1 3 5 6 5 5 6 1 3 5 6 6 6 6 6 6 6 6 6 6 7 6 6 6 6 6 6 6 6 4 3 2 3 4 4 3 3 3 3 3 3 3 3 3 3 3 2 2
3 4 4 5 5 6 2 5 2 2 2 2 3 4 5 5 5 5 5 5 6 7 7 6 6 6 6 7 7 7 6 5 4 4 4 3 3 3 4 3 3 3 3 3 3 3 3 2 2
6 5 4 5 4 2 1 5 3 1 2 3 3 2 3 4 5 5 5 6 6 7 8 8 8 7 7 8 7 7 6 6 6 5 4 4 3 3 4 3 3 3 3 3 3 3 3 3 2
5 5 4 3 3 1 3 5 1 1 2 2 2 1 2 3 4 4 5 6 6 7 9 9 9 8 8 7 7 6 6 4 4 4 4 4 2 3 4 4 3 3 3 3 3 3 3 2 2
5 4 4 6 4 5 3 2 2 2 2 1 1 1 1 2 3 4 4 5 6 7 9 9 9 9 8 7 7 6 6 5 5 5 4 3 3 3 4 4 4 4 3 3 4 2 3 2 2
4 2 4 5 4 5 4 4 2 2 2 2 1 1 1 1 2 3 4 4 5 5 7 9 9 8 8 7 6 5 6 5 5 5 5 4 4 4 4 4 4 4 4 4 3 2 2 2 2
6 6 5 5 5 5 4 1 1 2 2 3 2 2 1 2 2 2 3 3 4 5 6 7 8 8 7 8 7 6 6 5 5 5 5 4 4 5 5 4 4 4 4 4 3 3 3 3 3
5 6 7 7 6 6 6 3 2 1 2 3 3 2 1 2 1 2 2 3 3 4 6 6 7 7 7 7 6 6 5 5 5 5 5 5 5 5 5 4 4 4 4 4 4 4 3 3 2
Wind_Direction
175 218 248 242 231 168 87 73 65 87 78 65 62 61 63 45 27 58 82 99 97 110 114 116 101 100 100 98 101 101 100 105 107 108 106 101 97 93 91 90 88 85 83 82 80 80 78 78 78
230 258 242 244 240 143 98 80 79 68 86 98 79 70 74 68 54 80 106 102 108 108 104 94 99 97 99 100 102 101 101 102 105 107 105 101 98 96 94 92 88 84 82 81 81 81 82 80 79
208 261 267 246 102 77 97 88 91 92 86 76 83 58 50 59 65 81 97 121 113 101 96 91 96 96 95 98 100 102 104 103 101 104 104 100 96 96 94 91 88 84 80 79 78 80 82 81 80
248 228 229 170 97 66 78 98 113 122 100 68 93 90 78 51 47 86 114 121 112 105 100 95 93 94 94 98 99 102 105 106 103 102 100 97 94 94 95 93 90 85 82 81 78 79 81 81 79
253 253 177 122 99 87 81 94 130 108 93 82 86 92 87 69 73 108 121 117 109 104 102 106 99 95 96 97 99 102 105 106 106 102 97 94 93 92 93 91 90 88 84 83 80 79 79 78 77
234 237 176 129 113 106 93 85 122 101 97 97 96 98 88 94 101 114 121 116 110 108 108 107 107 97 91 93 95 101 104 105 103 99 96 93 89 86 90 90 89 90 89 87 84 82 80 76 74
289 223 125 124 128 120 95 88 81 99 102 86 89 103 115 123 109 122 123 118 111 109 106 105 115 116 108 95 90 94 97 98 97 95 94 90 86 85 87 89 89 91 90 89 87 84 79 76 75
315 215 136 133 139 110 101 111 74 66 88 84 62 100 124 136 134 131 126 122 117 114 110 109 108 104 112 111 97 93 92 89 94 93 91 93 100 100 99 98 87 89 89 87 87 87 83 78 74
265 214 139 123 134 108 123 129 97 85 113 103 66 56 95 132 145 143 140 136 129 121 113 108 108 105 107 107 109 112 108 99 114 112 112 132 108 100 101 80 81 84 85 85 85 86 90 94 89
254 146 91 70 67 108 125 126 127 155 137 126 118 104 123 142 154 157 155 151 148 138 127 115 111 113 114 112 115 119 119 122 114 104 110 100 91 88 91 100 89 87 92 97 90 99 124 132 99
70 80 95 92 72 109 128 119 141 185 139 123 138 140 146 155 161 166 163 159 152 149 142 128 121 120 117 119 117 117 119 118 117 110 108 101 99 112 107 112 122 116 124 108 115 131 84 78 74
101 84 82 87 92 116 118 123 129 216 47 61 134 149 158 169 170 174 172 163 159 159 156 146 146 140 131 125 123 135 136 136 127 129 117 116 101 101 99 101 96 107 100 94 88 77 79 73 74
113 101 94 91 107 112 113 124 132 123 92 113 134 151 165 174 177 176 176 169 167 166 164 158 163 158 142 131 140 144 132 135 135 126 141 123 114 110 111 106 102 98 97 103 89 84 80 77 73
105 109 108 104 113 118 120 117 173 124 132 139 150 161 169 178 186 177 180 178 178 177 175 164 169 166 165 158 161 141 135 141 137 140 145 126 113 116 118 103 98 96 89 85 95 93 91 82 74
141 145 132 122 136 127 172 173 172 126 157 156 164 166 169 179 187 191 186 186 185 182 177 168 170 174 173 169 156 155 164 154 149 146 157 142 130 134 129 120 116 112 111 105 98 96 90 90 86
183 188 156 121 140 158 233 229 125 144 183 182 180 173 178 188 203 205 201 197 193 190 179 169 171 179 173 177 173 164 164 155 149 149 153 154 151 142 131 126 124 122 117 111 109 111 103 94 84
189 187 159 135 146 185 234 256 131 167 203 203 203 200 195 197 208 208 211 207 198 195 186 180 179 179 174 172 172 170 165 153 150 144 143 161 157 164 144 126 137 131 129 121 123 110 105 97 91
176 194 190 173 130 215 238 253 198 192 215 219 218 218 211 213 208 206 209 206 200 196 191 183 179 181 165 166 173 159 162 154 152 146 146 148 172 169 140 156 154 141 137 131 130 120 113 101 103
263 239 236 179 151 249 253 262 237 211 215 221 220 223 223 223 208 199 200 200 197 197 198 189 184 177 168 169 181 178 172 169 159 157 153 162 163 164 157 174 156 157 156 157 150 138 137 132 125
232 243 226 179 183 261 269 266 239 214 223 231 232 227 229 228 210 195 194 193 198 196 200 197 190 181 173 171 178 177 168 169 147 157 156 169 171 171 170 174 163 164 158 160 156 159 162 154 189
230 253 260 258 247 235 270 247 209 203 217 228 236 235 231 228 223 203 198 197 194 195 195 192 190 182 176 172 169 162 155 177 172 166 160 169 182 173 181 176 177 169 168 168 175 177 187 187 200
242 269 262 254 251 239 261 280 199 202 218 224 224 224 228 225 225 217 207 206 199 195 192 191 188 185 180 181 186 191 192 192 188 181 168 174 179 173 181 179 184 178 178 177 187 185 194 207 206
314 270 246 254 259 258 234 267 212 194 233 229 223 224 227 225 223 219 215 211 206 194 188 192 188 182 183 190 189 203 202 193 178 179 177 180 168 171 182 182 179 182 185 192 189 186 206 213 230
190 201 207 224 242 246 239 263 271 198 269 265 230 226 222 219 218 219 216 207 202 190 185 186 187 182 185 193 193 199 196 193 186 188 183 181 169 175 181 182 187 189 188 185 190 193 200 220 218
218 239 228 212 215 236 156 256 271 18 316 293 284 245 220 215 213 211 211 207 200 193 187 186 185 184 187 194 196 197 197 197 199 193 189 192 182 179 180 179 188 189 183 180 185 195 203 205 206
219 247 272 274 271 269 209 247 305 10 311 292 283 264 208 210 210 209 210 209 202 198 192 189 188 188 186 193 196 197 193 199 200 203 201 195 192 182 179 180 178 180 178 178 181 196 195 201 197
211 223 286 288 278 267 236 242 247 219 224 203 225 226 213 212 211 211 208 205 202 202 195 192 190 188 188 193 193 195 193 192 193 198 200 193 187 177 178 179 180 179 180 185 181 196 186 187 204
274 224 223 250 269 265 261 257 260 206 223 224 248 254 229 223 215 209 207 207 205 203 197 192 194 194 190 192 193 191 194 190 193 197 197 193 183 176 179 183 177 177 177 184 185 186 184 179 162
195 210 230 247 266 278 282 277 41 293 310 286 277 267 255 248 225 207 200 198 199 195 190 190 194 196 193 190 191 188 185 187 189 194 193 191 189 190 192 187 183 180 179 180 178 184 177 180 170
251 241 232 246 244 256 278 280 102 275 305 299 297 297 276 256 224 208 198 186 187 192 185 185 194 196 194 191 188 188 181 185 192 194 194 194 192 194 197 192 189 186 187 189 183 178 180 182 181